Weather in Aleksandro-Nevsky

Russia / Ryazan Oblast     53°28′25″N   40°12′35″E
temp.,
°C
wind,
m/s
gust,
m/s
humid.,
%
clouds,
%
prec.,
mm/h
press.,
hPa
HPBL,
m
27 november, sat
sat2700:00−2ssw6158122 0.0 1016353
03:00−2s6138468 0.0 1016273
06:00−3s51290100 0.0 1016282
09:00−2sse61491100 0.0 1015331
12:00+1sse71692100 0.0 1012420
15:00+1sse91989100 0.0 1010623
18:00+1sse102094100 1.2 1007820
21:00+2s91795100 2.2 1006623
28 november, sun
sun2800:00+2s71597100 0.3 1006466
03:00+2s61398100 0.3 1006339
06:00+2s51299100 0.0 1006365
09:00+2s51199100 0.0 1007268
12:00+3ssw410100100 0.1 1008222
15:00+2ssw379962 0.1 1009124
18:00+1ssw359860 0.0 101174
21:00+1ssw349796 0.0 101254
29 november, mon
mon2900:00+1s3595100 0.0 101268
03:00+3sse3595100 0.0 101266
06:00+2se41196100 0.0 1010176
09:00+3se51397100 0.3 1009252
12:00+6se81796100 2.6 1005555
15:00+6sse81794100 4.4 1002598
18:00+7sse91891100 0.6 998596
21:00+8sse101992100 5.4 993993
30 november, tue
tue3000:00+9s102091100 1.4 988985
03:00+10s101890100 2.6 9841063
06:00+10ssw13217383 0.4 9831347
09:00+5sw121976100 0.4 9871170
12:00+3sw121866100 0.0 9891295
15:00+3sw10176692 0.0 9901288
18:00+2sw9167298 0.0 9901209
21:00+1sw9157634 0.1 9901094
1 december, wed
wed100:00+1sw8157320 0.0 990907
03:000sw7138191 0.0 990790
06:00−1wsw6118797 0.1 991717
09:00−1w6980100 0.1 993914
12:00−1w6869100 0.1 9961050
15:00−1w696397 0.1 9971123
18:00−2w5968100 0.0 9981086
21:00−2wsw597283 0.0 998892